Temp
19 19 19 19 19 19 19 20 20 20 19 19 19 19 20 20 20 20 20 20 20 20 20 21 21 21 20 21 21 22 22 20 22 25 26 28 28 27 28 27 27 27 27 27 29 30 31 31 32 32 32 33 33 33 34 34 34 30 26 25 24 26 27 27 28 27 29 31 30 31 31 31 30 30 31 31 32 32 32 32 33 33 34 34 33 32 31 30
19 20 20 20 20 20 20 20 20 20 20 20 20 20 20 20 20 20 20 21 20 20 21 21 21 21 21 21 21 21 21 20 23 28 29 28 27 27 27 27 27 27 27 28 30 31 32 32 33 33 32 33 34 34 33 34 33 29 26 25 24 27 28 28 27 26 29 30 30 31 31 31 30 30 31 30 30 31 32 32 33 32 32 32 32 31 31 30
19 20 20 20 20 21 21 21 21 21 21 21 21 21 21 20 20 20 20 21 21 21 20 21 21 21 21 21 21 20 19 21 26 29 28 27 27 27 27 27 27 27 27 29 31 32 33 33 34 33 32 33 34 33 33 34 33 31 30 26 24 27 28 28 27 26 29 30 30 31 30 31 31 31 31 30 30 31 32 32 32 31 31 31 31 31 31 31
19 20 20 21 21 21 21 21 21 22 22 21 21 21 21 21 21 20 20 20 21 21 21 21 21 21 21 20 21 20 19 24 29 29 27 27 27 27 27 26 27 27 27 29 31 32 32 33 34 33 32 33 34 34 34 34 34 33 33 29 25 27 28 28 28 28 30 31 30 30 30 31 31 31 31 31 31 31 31 32 33 32 32 31 31 32 31 31
19 20 20 20 21 21 21 22 22 22 22 22 22 22 21 21 21 20 20 21 21 21 21 21 21 21 20 20 20 19 21 26 30 28 27 27 27 26 27 26 26 27 28 30 31 32 32 33 33 33 32 32 33 34 34 35 35 34 33 32 28 27 28 28 29 30 31 31 30 30 30 31 31 31 30 31 30 29 29 32 34 32 32 32 31 32 32 32
19 20 20 20 21 21 21 22 22 22 22 22 22 22 22 21 21 21 21 21 22 22 22 21 21 21 20 21 19 18 23 28 29 28 27 27 27 26 26 26 27 26 28 31 32 32 32 33 33 33 33 33 33 33 34 35 35 34 33 34 31 30 29 28 29 30 30 31 30 29 31 30 31 30 28 29 29 29 31 33 34 33 33 33 32 32 32 31
19 20 20 20 20 21 21 22 22 22 22 22 23 23 22 22 22 21 21 22 22 22 22 22 21 21 20 20 19 21 27 30 29 27 27 27 26 26 26 26 27 27 29 31 32 33 33 33 33 33 33 33 33 34 35 35 35 34 33 33 33 32 31 29 30 30 30 30 29 30 30 30 30 29 27 28 28 30 32 34 34 33 34 33 32 32 32 32
19 20 20 20 20 21 21 22 22 22 23 23 23 23 23 22 22 22 22 23 23 23 22 22 21 20 20 19 22 26 29 30 28 27 27 27 26 26 26 26 27 28 31 32 33 33 33 33 33 34 34 33 34 34 35 35 35 35 33 33 33 32 31 30 30 29 30 30 29 30 29 30 29 27 27 27 27 31 33 34 34 33 33 33 32 32 32 32
19 20 20 20 20 21 21 22 22 22 23 23 23 23 23 23 23 23 23 23 24 23 22 22 21 20 19 19 25 30 30 29 28 27 27 26 26 26 26 28 28 29 31 32 33 33 33 33 34 34 34 34 34 34 35 34 34 34 33 33 32 31 31 31 30 29 29 29 29 29 29 30 29 26 26 26 28 32 33 33 33 33 33 32 32 32 32 31
20 20 20 20 21 21 21 22 22 23 23 23 23 23 23 23 23 23 24 24 24 23 23 22 21 20 18 20 27 30 29 29 29 28 27 27 27 27 27 29 30 30 32 32 33 33 34 34 35 35 33 34 34 34 35 34 33 34 33 33 32 31 31 31 30 29 29 29 29 29 28 28 28 28 27 27 30 33 33 33 33 33 33 32 33 32 32 32
20 20 20 21 21 21 22 22 22 23 23 23 24 23 23 23 24 24 24 24 23 23 22 22 21 20 19 24 29 30 29 29 29 29 28 28 28 28 29 30 30 31 32 33 33 33 34 34 35 34 33 34 34 34 35 34 34 34 33 33 32 31 31 31 30 30 30 29 28 29 27 26 27 28 28 28 31 33 32 33 32 33 33 32 32 32 32 33
20 20 21 21 21 22 22 22 23 23 23 23 24 24 24 23 24 24 24 24 23 23 22 22 21 19 21 27 30 29 29 29 29 29 29 29 29 29 30 30 30 31 32 33 33 33 33 34 34 33 33 34 34 34 35 34 34 33 33 33 31 31 31 30 30 30 30 29 28 29 27 25 26 27 28 28 30 32 32 32 32 32 33 32 32 32 32 32
20 20 21 21 22 22 22 23 23 24 23 24 24 24 24 23 24 24 24 23 23 23 22 22 21 19 22 29 30 29 29 30 29 29 29 29 30 30 29 29 30 30 31 32 33 33 33 33 33 33 34 33 34 34 34 34 34 33 33 33 32 30 29 29 30 29 29 28 29 28 25 25 27 27 28 28 29 31 31 31 32 32 32 32 32 32 32 32
20 20 21 21 22 22 22 23 23 24 24 24 24 24 23 23 24 24 23 23 23 23 22 22 21 20 25 30 30 29 29 29 29 29 30 30 30 30 30 30 30 30 30 31 32 32 32 33 33 33 34 33 34 34 34 34 33 33 33 32 32 28 26 28 29 30 29 27 29 28 24 24 27 27 28 28 27 29 29 30 31 32 32 32 32 32 32 32
20 20 21 21 22 22 23 23 24 24 24 24 24 24 23 23 23 23 24 23 23 23 22 22 21 23 28 31 30 29 28 29 30 30 30 30 31 31 31 30 30 30 30 30 31 32 32 33 32 33 34 34 34 33 34 34 34 34 30 27 30 27 25 28 28 29 29 27 29 28 24 25 27 26 27 27 25 27 28 27 29 32 33 32 32 32 32 32
20 20 21 21 22 23 23 23 24 24 24 24 24 24 23 23 23 23 24 23 24 23 22 23 24 26 30 31 30 29 29 30 31 31 30 31 31 32 31 31 31 31 30 31 31 32 32 32 33 33 34 34 34 33 33 31 31 34 30 24 27 26 25 27 28 29 30 28 28 27 26 27 26 25 26 26 25 26 27 25 26 30 33 32 32 32 32 32
20 20 21 21 22 23 23 23 24 24 25 24 24 23 23 22 23 23 24 23 24 23 22 24 28 29 31 31 30 30 31 32 31 31 31 31 31 32 31 31 32 32 32 32 32 32 33 32 33 33 34 33 34 34 30 25 25 29 30 27 28 28 26 26 26 28 30 29 28 27 28 28 27 26 26 25 25 25 25 25 25 27 32 32 32 33 32 32
20 20 21 21 22 23 23 24 24 25 25 25 24 23 23 22 23 23 23 23 22 23 23 25 28 28 29 31 31 31 32 32 31 31 31 31 31 31 32 32 32 32 32 32 32 32 32 33 33 33 34 33 34 34 26 24 26 26 27 26 27 29 28 27 27 28 31 30 29 28 28 28 27 27 26 25 25 24 24 25 25 25 29 32 32 32 32 32
20 20 21 21 22 23 24 24 24 25 25 25 24 23 22 22 23 23 23 24 25 27 28 29 30 29 29 31 32 32 32 32 31 32 32 32 31 32 33 33 33 32 32 32 31 32 33 33 33 31 32 33 34 34 30 30 31 29 29 28 27 27 28 29 30 31 31 30 29 28 27 27 27 27 26 25 25 25 25 25 25 24 27 32 33 32 32 32
20 21 21 21 22 23 24 24 25 25 25 25 23 22 24 25 27 27 27 28 30 32 32 32 33 32 32 32 33 32 32 31 32 32 32 32 32 32 33 33 33 32 32 33 32 33 34 32 31 31 32 35 35 34 34 34 33 32 31 30 30 28 28 30 31 31 30 29 28 29 28 28 28 27 26 26 26 26 25 25 25 24 26 31 33 33 32 32
20 21 21 22 22 23 23 24 25 25 26 25 22 25 29 29 29 30 30 31 33 34 33 33 33 33 33 33 33 33 32 32 32 33 32 32 32 32 32 32 32 32 33 33 33 34 33 30 31 34 35 35 34 34 34 33 33 33 32 30 29 29 29 31 31 31 30 28 27 29 29 27 27 28 27 26 26 26 25 25 25 25 26 30 32 32 32 32
20 21 21 22 22 23 23 24 25 25 26 25 23 28 32 30 29 29 29 31 33 34 33 33 33 33 33 33 33 33 33 33 32 33 32 32 33 32 32 33 32 33 33 33 33 32 31 30 33 35 35 33 34 34 33 33 33 33 32 29 27 29 30 30 31 31 31 29 29 30 30 28 28 28 27 27 26 26 25 25 26 27 29 30 30 32 32 32
20 21 21 22 22 23 24 24 25 25 26 26 27 30 31 29 29 29 29 30 32 33 33 33 33 33 33 33 33 32 32 33 32 32 33 32 33 33 33 33 33 33 33 32 32 30 28 31 35 35 34 33 33 33 33 33 33 33 32 28 27 30 30 26 29 31 31 30 30 31 30 30 30 27 27 27 27 27 25 25 26 28 30 30 30 31 32 32
20 21 21 22 22 23 24 25 25 26 26 27 30 31 29 28 29 29 29 31 32 33 33 33 34 33 33 33 33 32 33 33 33 33 33 32 33 33 33 34 33 33 33 33 33 31 30 33 35 34 33 33 32 33 34 32 31 32 33 30 28 32 31 29 30 31 32 31 32 31 27 28 30 28 27 27 27 27 26 25 25 27 29 29 30 31 32 32
21 21 22 22 23 23 24 24 26 28 28 29 30 30 29 28 29 28 29 31 31 32 33 33 34 33 33 33 33 33 33 33 33 33 34 33 33 33 33 34 33 33 33 32 32 33 33 34 34 33 33 33 32 33 33 32 29 30 33 34 33 33 34 34 33 30 28 27 29 29 23 23 28 28 28 27 27 27 26 26 26 26 27 27 29 30 31 32
21 21 22 22 23 24 24 26 28 29 29 31 31 30 29 28 28 27 29 29 28 31 33 32 33 32 32 33 34 34 32 32 34 34 34 34 33 33 33 33 33 33 33 33 33 33 33 34 33 33 33 33 33 32 34 34 28 26 32 36 35 35 34 33 32 28 24 24 29 30 24 22 25 27 28 27 27 27 26 27 26 26 26 26 28 29 30 32
21 21 22 22 23 23 24 26 27 28 30 30 30 29 29 28 27 27 28 25 24 30 33 33 33 32 32 34 34 32 29 31 34 34 34 33 33 34 32 33 34 32 34 33 29 30 33 33 32 33 33 33 32 31 34 35 29 27 33 36 34 35 33 33 32 27 26 28 30 31 28 23 23 26 28 28 27 27 26 27 27 27 26 26 27 28 30 32
21 21 22 23 23 23 23 24 26 29 30 29 29 29 29 28 27 28 26 21 25 32 33 33 33 32 33 34 34 33 31 32 32 32 34 34 33 34 32 33 33 32 35 32 26 29 34 33 32 33 32 32 32 33 34 34 31 31 35 35 34 34 34 34 32 28 28 27 24 27 29 23 22 25 28 29 27 27 27 27 28 27 26 26 26 27 30 32
21 21 22 23 23 23 24 23 24 29 29 28 28 28 29 28 28 30 25 22 28 33 32 33 32 32 34 34 33 34 33 33 32 32 34 34 33 34 32 33 33 32 33 32 30 32 34 33 33 33 32 32 33 34 34 33 32 34 35 34 34 34 34 34 32 27 27 25 21 24 27 23 22 25 26 27 26 26 28 28 28 27 26 27 27 27 30 32
21 21 22 23 23 23 24 23 24 27 28 27 28 28 29 29 28 26 22 24 29 32 32 33 32 33 33 33 33 33 33 33 33 33 34 33 33 33 33 34 33 33 33 33 33 33 33 33 33 33 33 33 33 34 34 33 34 34 34 33 33 33 33 33 31 28 24 22 22 25 27 25 23 23 25 25 26 27 28 28 28 28 27 27 27 28 30 32
21 22 22 23 23 22 24 26 27 27 27 26 27 28 29 30 29 23 22 27 30 30 32 33 32 33 33 33 33 33 33 33 33 33 33 34 33 33 33 32 32 32 31 31 32 33 33 33 33 33 33 33 33 33 34 34 34 33 33 32 28 28 29 27 26 26 23 21 23 26 28 26 22 23 25 27 28 29 28 28 29 28 27 26 27 28 29 31
22 22 23 23 23 23 25 27 26 25 26 26 27 29 29 27 26 23 25 29 28 29 33 32 32 33 33 33 33 33 33 33 33 33 33 33 33 33 33 31 31 28 25 27 29 31 32 33 34 33 33 34 33 32 33 34 34 33 32 28 24 23 23 23 22 23 22 22 25 28 27 25 23 24 27 28 28 28 27 27 29 29 28 26 26 28 29 30
22 23 24 24 24 24 24 25 25 24 26 27 27 30 29 24 23 25 28 29 27 30 33 32 33 33 32 32 32 33 33 32 33 33 33 33 33 33 32 32 33 29 26 27 27 26 28 32 34 33 32 33 33 30 28 30 32 31 29 25 23 22 22 22 22 22 22 23 26 28 26 23 23 25 28 29 28 28 28 27 28 29 29 27 26 27 29 30
23 23 24 24 25 25 24 24 25 25 26 28 29 30 27 22 24 27 29 30 31 32 33 32 33 33 32 32 32 33 32 31 33 33 32 33 32 32 32 32 33 32 31 29 26 25 24 26 31 32 31 32 34 33 30 30 32 31 32 29 24 23 23 22 22 22 23 23 24 27 25 23 23 24 28 29 29 29 28 27 26 27 29 28 26 27 29 30
23 24 23 24 25 25 25 25 25 25 26 29 30 28 24 22 25 28 29 32 33 32 33 33 33 31 31 32 33 33 32 30 32 33 32 32 31 31 32 32 32 33 32 27 26 27 23 24 31 33 32 33 33 34 34 32 30 30 32 30 25 26 26 23 23 23 23 23 23 23 24 25 25 26 29 30 29 30 29 27 25 25 28 29 28 28 29 30
25 24 23 24 25 25 25 25 25 25 27 30 29 26 25 26 29 30 31 33 33 33 33 31 31 29 28 30 32 32 32 31 32 32 31 32 32 31 32 32 32 33 31 28 27 27 23 25 33 33 32 34 33 33 34 31 28 28 28 26 27 32 30 23 22 24 23 22 23 23 23 25 25 26 29 29 28 29 29 28 26 25 26 29 29 29 29 31
24 26 26 27 27 25 25 24 25 26 28 30 27 25 29 32 33 33 33 33 32 33 32 28 28 29 26 27 30 31 32 31 32 31 29 30 30 31 32 32 32 32 32 31 29 30 26 25 32 34 32 34 33 32 34 33 31 29 26 27 30 32 30 25 22 23 22 22 23 23 23 23 23 23 27 28 27 27 29 28 27 25 25 26 29 29 29 30
22 26 28 29 27 25 25 24 25 27 29 29 28 28 31 33 33 33 33 33 32 33 31 27 28 30 27 26 28 32 32 29 30 30 29 29 29 30 33 32 32 32 33 32 30 31 29 24 29 35 32 33 35 32 30 33 34 31 29 32 30 25 24 24 22 22 22 22 22 23 23 23 23 23 24 26 27 27 28 28 27 26 25 25 26 28 28 29
22 26 29 28 26 25 25 25 26 29 29 28 28 29 31 32 33 33 32 33 32 32 31 30 30 31 30 29 29 32 32 29 30 30 28 28 28 30 33 32 32 32 32 33 31 32 32 25 25 32 34 33 33 31 27 28 32 32 31 33 31 26 24 23 23 23 22 22 22 22 23 23 23 25 25 26 27 27 28 28 27 26 26 26 26 26 27 28
25 28 29 27 26 26 26 26 28 29 28 29 29 31 32 33 33 33 32 33 32 32 32 32 32 30 31 32 31 32 32 31 31 30 29 30 29 29 32 32 32 32 32 33 32 32 32 28 24 29 34 31 29 30 29 28 29 29 27 26 27 28 28 26 25 24 23 22 22 22 22 22 24 26 26 26 27 28 27 27 27 26 26 27 26 24 24 27
27 29 28 27 26 26 27 27 28 29 29 30 31 32 33 33 32 33 32 32 33 33 32 32 32 32 31 31 31 32 32 31 31 31 30 31 29 29 32 32 32 32 32 32 33 31 31 28 24 25 28 27 28 32 32 31 31 29 27 25 24 25 26 24 23 24 24 23 22 22 22 22 25 27 26 26 28 28 28 27 27 26 26 27 26 24 23 25
27 28 28 27 26 27 28 28 29 30 30 31 32 32 32 31 32 32 32 32 32 32 33 32 32 32 32 32 32 32 32 31 31 31 30 31 31 30 31 32 32 32 32 31 32 32 31 29 25 23 26 29 31 33 32 31 32 31 30 29 26 24 23 22 21 23 23 23 23 23 22 23 25 26 26 27 27 27 27 27 27 27 26 26 26 24 24 24
28 29 28 27 27 28 28 28 29 30 30 31 32 32 32 31 31 32 32 32 32 32 32 32 32 32 32 32 32 32 31 30 31 31 31 32 33 32 32 32 31 32 32 31 32 31 30 29 25 23 27 31 32 33 33 32 32 30 30 30 28 26 24 23 23 24 23 22 23 23 22 22 25 26 26 27 27 27 26 26 27 26 25 25 25 25 25 25
28 29 29 27 27 28 28 28 29 30 31 31 31 31 32 31 31 32 32 31 32 32 31 32 32 32 32 32 32 32 31 29 29 31 31 31 32 32 32 32 31 32 32 31 31 30 28 27 25 22 23 25 27 28 29 29 30 29 28 28 28 28 27 26 26 25 23 22 23 22 22 22 24 26 27 27 28 28 27 26 26 26 25 25 25 24 25 25
26 28 30 28 28 28 28 29 30 31 31 31 31 31 31 31 31 32 32 32 33 32 32 32 33 33 33 32 32 32 32 29 29 31 31 31 32 32 32 32 31 32 32 30 30 30 28 28 26 22 21 22 22 23 24 26 28 29 28 28 28 28 28 26 24 23 21 22 23 22 22 23 24 26 26 27 27 27 27 26 27 26 25 24 25 24 23 24
25 27 29 29 29 29 28 30 30 30 30 31 30 30 30 31 31 32 32 32 32 32 32 32 33 33 32 32 31 31 32 31 30 31 31 31 32 32 32 31 31 31 30 29 30 30 29 29 28 25 23 23 23 24 28 29 27 26 28 28 28 28 28 27 24 22 22 22 21 21 22 22 24 26 27 26 27 26 26 26 26 26 25 24 24 23 22 22
25 27 29 28 28 28 28 29 30 29 30 30 30 30 30 30 31 31 31 31 32 32 32 32 32 32 31 32 31 30 31 32 31 31 31 31 32 33 32 31 31 31 29 29 30 30 28 26 28 28 26 26 28 28 30 30 27 26 27 27 28 29 28 26 24 23 24 22 21 23 24 22 23 26 27 26 26 26 25 25 25 25 24 24 23 22 22 22
26 27 29 28 27 28 29 29 30 30 30 30 30 30 30 30 31 31 30 31 31 32 31 31 31 31 32 32 31 30 31 31 30 31 31 31 31 33 32 31 31 30 30 30 31 31 28 25 28 29 27 29 31 30 30 30 28 28 27 27 28 28 27 25 24 26 26 22 22 24 24 22 23 24 25 25 25 25 25 25 24 24 23 22 22 22 22 22
26 26 28 27 27 28 29 29 29 29 30 30 29 29 30 30 30 31 31 31 31 31 31 30 31 32 32 32 31 30 30 29 27 29 31 31 31 32 31 31 31 31 31 31 31 31 28 26 29 29 26 28 30 30 30 29 28 28 28 28 29 28 28 27 27 29 28 25 25 26 25 24 24 23 24 25 25 24 25 24 24 23 23 21 21 21 21 21
25 24 25 25 26 27 28 28 28 28 28 29 28 28 29 29 30 31 32 31 30 31 31 30 31 32 32 32 32 31 32 31 29 30 31 30 31 31 30 30 31 31 31 31 31 31 27 26 29 29 25 25 29 30 29 29 27 26 27 28 29 28 28 28 27 27 26 25 26 26 25 24 24 23 24 25 25 25 25 23 23 23 22 21 20 20 20 20
23 23 23 23 24 26 27 28 28 27 27 28 28 28 29 29 30 30 31 31 31 31 32 31 31 32 32 32 32 31 32 33 31 32 32 31 31 31 31 31 31 31 31 31 30 30 28 27 29 28 23 23 27 28 28 28 28 25 25 27 28 27 27 26 25 25 25 25 25 24 23 24 23 22 23 25 25 25 24 23 22 22 21 20 20 20 20 19
22 23 23 23 24 25 26 27 27 27 27 28 29 29 29 29 30 30 30 31 31 31 32 32 31 31 31 32 32 32 33 33 33 33 34 33 32 32 32 32 32 31 31 31 30 30 30 28 27 26 23 22 26 28 27 26 24 22 24 27 27 27 27 27 26 27 27 26 24 24 24 25 24 23 23 25 25 23 23 22 22 22 21 20 20 20 19 19
Height
809 808 807 806 805 804 803 802 801 799 798 797 796 795 794 793 792 791 790 789 788 787 786 785 784 784 783 782 780 780 778 777 777 775 774 771 770 770 770 770 770 770 771 771 770 769 767 766 764 762 762 759 759 757 753 751 749 766 788 801 805 795 790 787 787 788 782 778 776 773 771 776 781 776 769 768 770 771 772 769 766 764 762 763 769 773 779 784
810 809 808 806 805 804 803 802 801 799 799 797 796 795 793 792 791 790 789 788 787 786 785 785 784 783 782 781 780 779 777 777 776 772 770 771 770 771 770 770 770 770 771 770 768 767 765 764 761 760 762 761 758 756 758 753 753 774 792 803 805 794 787 780 784 786 778 778 777 773 772 773 777 776 770 776 782 776 777 776 770 772 771 770 772 776 781 784
810 809 808 807 806 804 804 802 801 800 798 797 796 795 793 792 791 789 788 787 786 785 784 784 783 782 781 781 779 779 778 777 774 770 770 770 770 770 770 770 770 770 771 770 768 766 764 761 760 760 763 763 757 757 761 754 757 769 778 801 806 790 784 778 780 784 775 774 777 775 773 773 773 771 770 778 783 779 779 778 776 780 779 777 776 777 781 783
811 810 808 807 806 805 803 802 801 800 798 797 796 794 793 791 790 789 787 786 785 784 784 783 782 782 781 780 779 779 778 778 774 770 771 771 770 770 770 771 770 771 771 770 768 766 764 761 760 760 764 767 758 757 761 754 758 762 766 791 797 786 786 781 777 776 770 770 774 775 775 776 772 769 771 775 782 785 782 775 774 779 777 777 777 777 780 782
811 810 809 807 806 805 803 802 801 799 798 797 795 793 792 790 789 788 786 786 784 784 783 782 782 781 780 780 779 779 780 783 776 769 772 771 770 771 770 771 771 772 771 770 768 766 765 762 760 762 766 769 764 761 762 751 752 762 764 772 782 784 787 781 773 770 768 768 773 777 778 776 771 772 775 776 785 789 782 770 766 771 772 774 776 776 778 780
812 810 809 807 806 805 803 802 800 799 798 796 795 793 791 790 788 786 785 784 784 783 782 782 781 780 780 779 779 779 781 784 774 769 774 771 771 771 771 773 772 772 772 770 767 765 765 762 764 767 767 769 769 766 760 750 751 764 766 762 769 775 779 779 772 770 768 770 777 778 774 772 774 780 781 781 786 782 772 764 761 766 768 771 773 776 778 780
812 810 809 808 806 805 803 802 800 799 797 796 794 792 790 788 787 786 784 784 783 782 782 781 780 780 779 778 780 778 776 776 771 772 774 772 773 772 772 773 772 773 771 768 766 764 764 764 766 765 766 769 769 764 757 752 751 761 767 764 764 767 771 774 771 770 769 772 775 772 773 775 779 785 784 784 784 774 765 759 760 764 766 769 773 775 778 780
812 810 809 807 806 804 803 801 800 798 797 795 793 791 789 788 786 785 784 783 783 782 782 781 780 779 779 779 779 775 773 773 772 774 774 773 774 773 774 774 774 773 769 768 764 762 763 765 765 761 766 768 764 762 756 755 756 759 767 765 764 767 768 768 769 772 771 772 772 772 779 778 778 786 788 788 782 770 762 759 761 764 767 770 773 776 778 780
812 810 809 807 806 804 803 801 799 798 796 794 793 791 789 787 786 785 783 783 782 782 782 780 780 779 779 779 776 775 776 774 774 775 774 774 774 774 775 773 774 772 769 768 763 763 764 764 762 758 764 764 760 762 756 761 764 761 764 764 766 770 767 768 770 773 773 772 773 776 782 778 776 785 791 789 779 768 761 762 764 766 770 772 774 776 778 779
812 810 809 807 805 804 803 801 799 798 796 794 792 790 789 787 786 784 783 783 782 782 781 780 780 778 779 778 775 778 777 773 774 775 774 775 775 775 774 773 773 771 768 767 764 763 761 761 756 752 760 761 759 761 756 761 763 758 760 762 766 770 767 768 771 772 773 772 773 778 783 781 776 783 793 787 772 765 764 766 766 768 772 773 773 775 777 778
811 810 808 807 805 804 802 800 799 797 795 793 791 790 788 787 786 785 784 783 782 782 781 780 779 778 779 776 775 778 776 772 775 775 775 776 775 775 773 773 772 770 768 766 765 763 760 759 753 754 762 761 759 759 754 755 756 756 760 763 767 770 769 768 771 772 772 775 774 774 784 788 783 785 789 782 769 764 767 770 770 770 772 772 774 776 777 778
811 810 808 806 805 803 802 800 798 797 795 793 791 789 788 787 786 785 784 783 782 782 781 780 779 779 778 775 775 777 774 773 774 774 775 775 774 774 772 773 772 770 768 765 764 762 762 759 756 762 762 759 762 762 756 750 754 758 761 770 773 770 773 772 772 772 772 778 773 773 790 794 791 789 782 777 772 767 770 774 772 772 772 773 775 776 778 778
811 809 808 806 804 803 802 800 798 797 795 792 791 789 788 787 786 785 784 783 782 781 780 780 778 779 779 776 774 775 774 773 774 774 775 774 773 773 773 773 772 771 769 766 764 763 764 762 760 761 757 760 764 759 754 750 756 762 760 769 773 776 784 777 772 773 775 778 771 777 800 799 790 788 779 776 776 773 776 776 773 773 773 774 776 777 778 778
811 809 807 806 804 803 801 799 798 796 794 792 790 789 788 787 786 785 784 782 782 781 780 779 779 780 779 777 774 775 774 774 775 774 774 773 772 772 772 772 771 771 770 768 766 764 765 762 761 760 756 759 757 753 756 757 760 764 766 770 771 783 794 782 774 775 779 780 770 780 802 800 791 786 779 778 779 780 783 780 775 774 773 774 776 778 779 779
811 809 807 806 804 802 801 799 798 796 794 792 790 789 787 786 786 785 784 783 781 781 780 778 779 778 777 775 773 774 774 773 772 772 772 772 770 769 770 771 771 771 770 769 768 766 765 763 763 765 759 753 756 763 766 765 762 762 775 782 775 784 795 787 778 775 781 780 772 782 797 796 792 789 781 781 784 784 787 787 780 775 773 775 776 777 779 779
811 809 807 805 804 802 801 799 797 796 794 791 790 789 787 786 785 784 784 782 781 780 780 779 777 776 778 775 772 773 772 770 770 771 772 771 768 767 768 770 770 770 770 768 767 765 764 763 763 763 760 759 764 770 769 770 769 765 776 784 779 788 796 792 783 773 774 778 779 786 791 791 793 791 785 784 786 786 790 792 788 780 773 774 776 776 778 779
811 809 807 805 803 802 800 799 797 795 793 791 790 788 787 786 784 784 783 782 782 780 779 778 774 774 776 772 772 772 768 768 771 770 771 771 768 768 768 768 768 768 767 767 767 765 764 765 766 764 763 765 763 764 776 783 779 771 773 777 774 781 789 793 793 780 770 777 785 786 786 788 789 788 787 787 786 789 794 795 794 788 776 774 776 775 777 779
811 809 807 805 803 801 800 799 797 795 793 791 789 788 787 786 785 784 782 782 781 780 781 778 775 782 783 773 772 772 767 768 771 769 771 770 769 768 767 766 765 766 768 769 768 766 767 765 766 768 768 767 763 767 781 784 777 774 774 777 776 775 778 786 792 781 769 774 782 786 788 789 787 785 787 789 789 790 794 794 795 795 784 775 775 775 777 779
811 809 807 805 803 801 799 798 797 795 793 791 789 788 786 786 785 783 781 781 781 782 783 777 773 783 785 772 767 767 766 769 770 769 768 769 769 767 765 765 764 766 771 775 774 768 767 769 770 775 773 767 764 765 770 767 769 774 774 774 775 773 775 779 779 772 769 777 783 788 792 790 787 786 787 788 789 791 794 794 794 798 790 777 774 775 777 779
810 808 806 804 803 801 799 798 797 795 793 791 789 788 787 786 786 783 779 777 775 773 774 771 768 771 772 767 765 767 769 770 769 766 767 768 768 766 765 765 766 769 771 774 775 765 764 776 778 775 768 759 757 759 760 760 764 772 773 771 766 765 772 777 776 770 771 783 788 785 787 788 786 785 786 786 787 790 793 794 794 798 794 780 774 774 776 778
809 808 806 804 802 800 799 798 796 796 793 791 790 788 786 786 789 787 780 775 769 766 768 767 765 767 768 766 764 765 767 768 766 764 767 766 765 769 768 767 773 775 769 767 769 764 768 782 776 762 758 756 758 761 763 766 767 769 771 771 766 763 768 772 773 771 770 783 789 780 781 789 786 782 784 785 788 791 791 793 793 795 793 782 776 775 775 776
809 807 805 804 802 800 799 797 797 796 794 792 789 785 782 784 788 786 783 780 771 765 767 766 765 766 766 766 764 764 765 769 770 766 766 765 765 770 769 767 774 772 767 769 771 773 778 779 766 754 755 760 763 764 767 769 769 769 768 770 768 763 767 771 770 769 769 778 783 776 779 784 781 780 782 783 786 788 787 789 789 787 785 782 780 777 776 776
809 806 805 803 801 800 798 797 797 795 794 792 787 783 783 785 785 782 783 784 777 768 766 766 767 766 767 767 764 765 767 769 773 768 765 766 765 766 765 767 771 769 771 774 775 778 778 769 757 753 759 766 768 766 769 772 770 769 768 770 767 759 765 775 774 772 770 773 775 775 777 774 773 781 784 782 782 783 786 787 785 783 781 780 779 776 776 776
808 805 804 802 800 800 797 797 796 794 793 791 787 785 786 787 785 783 783 781 778 770 764 765 764 764 768 766 763 766 767 766 768 767 764 765 765 764 764 765 770 771 771 773 774 775 770 760 755 759 764 769 772 769 769 773 771 766 763 766 765 756 758 765 771 773 769 767 768 773 781 777 774 782 786 784 782 782 786 788 787 784 780 780 778 776 775 774
807 805 803 801 800 799 797 797 794 792 792 788 786 786 787 787 784 784 786 785 783 774 767 766 765 765 765 765 764 762 764 765 764 763 761 760 763 766 765 763 768 773 771 772 775 772 766 758 757 767 768 768 772 771 767 770 772 767 759 756 758 756 754 753 762 774 777 777 773 776 792 791 777 779 785 785 786 785 785 786 788 786 782 782 781 778 776 772
806 804 802 801 799 798 797 794 791 792 790 785 785 786 787 788 785 785 788 792 790 779 773 771 769 770 765 765 762 758 770 772 760 758 761 761 759 762 769 765 764 772 771 769 768 766 765 761 762 769 769 769 773 771 763 762 773 773 755 746 751 754 757 757 763 778 786 782 774 774 792 795 781 780 782 782 786 787 784 784 784 783 783 784 782 779 776 773
806 803 801 800 798 798 796 792 792 791 788 786 786 787 787 786 785 785 792 803 797 779 774 772 770 771 766 763 759 765 784 777 761 760 759 761 759 757 771 770 766 769 764 766 774 770 764 765 770 771 770 772 772 768 760 758 772 771 750 747 755 756 761 762 762 774 776 770 769 767 777 791 785 777 776 776 782 785 784 783 780 780 782 782 781 779 775 772
804 802 800 799 798 798 795 794 793 789 787 788 786 788 788 786 785 785 801 820 802 773 770 770 767 766 762 761 760 767 775 768 771 770 755 759 762 758 770 769 768 770 761 770 783 771 762 768 771 770 772 772 765 760 755 759 770 762 747 751 758 758 760 757 759 770 768 773 786 771 767 791 789 773 774 776 780 786 784 780 778 778 779 780 779 778 774 769
803 801 798 797 797 796 795 795 793 788 788 788 788 789 786 785 786 787 806 820 794 769 769 769 768 767 764 764 765 765 764 764 774 768 755 761 761 760 769 765 766 772 764 768 775 768 763 764 763 767 771 767 760 756 754 762 767 755 749 754 756 757 757 756 763 771 771 785 800 777 765 790 790 774 778 783 784 786 781 775 775 776 777 777 776 776 772 767
802 799 797 796 795 795 795 794 791 790 790 788 789 788 785 787 790 802 819 810 784 772 770 769 771 770 769 772 771 767 767 768 767 762 760 762 759 760 762 758 762 769 767 765 766 764 761 759 759 764 766 760 759 757 755 760 759 753 756 760 761 760 758 760 763 768 783 797 794 771 761 779 788 782 785 788 785 781 778 774 772 773 775 776 774 773 770 766
800 797 795 794 794 794 793 791 789 790 790 790 790 786 787 791 794 814 822 793 775 778 772 771 774 769 770 776 774 770 769 769 765 766 767 762 762 764 763 765 767 770 772 768 766 764 762 764 763 760 758 757 760 759 755 756 755 758 762 764 770 768 765 772 770 776 799 803 782 760 754 767 785 791 787 783 776 772 776 776 770 770 773 775 774 771 767 765
798 795 793 792 792 792 791 789 788 790 790 790 789 786 791 802 804 808 800 781 782 784 773 774 775 770 773 773 773 771 771 772 768 768 770 766 767 766 769 773 773 780 782 770 768 767 764 765 760 757 757 756 764 765 758 755 755 762 765 769 783 788 793 803 799 796 804 792 766 753 761 774 784 788 781 773 772 770 772 772 766 765 768 771 773 769 765 763
797 793 791 790 790 790 790 790 789 790 790 789 790 787 794 813 812 792 780 780 784 777 769 774 772 771 775 774 775 773 772 774 770 768 770 770 770 768 771 771 767 779 782 769 769 767 765 765 757 759 762 756 762 769 768 763 761 770 773 776 786 794 809 819 807 798 795 779 756 751 771 783 781 783 776 769 772 768 765 767 764 761 761 766 769 766 764 761
794 791 790 789 789 789 789 790 789 790 790 789 791 793 803 816 803 781 777 777 775 771 771 774 773 775 777 775 775 772 775 777 770 770 772 770 771 767 769 772 767 770 772 772 773 769 778 781 765 763 766 760 759 761 766 766 764 769 767 769 779 781 793 800 790 786 783 770 758 759 774 782 782 784 772 764 765 761 761 763 764 764 759 759 765 764 761 759
793 791 790 788 789 789 788 789 789 790 790 789 792 799 809 809 789 778 778 771 769 774 772 771 774 780 780 775 773 770 774 778 771 771 773 771 771 769 769 774 771 769 772 779 777 770 780 780 762 759 759 759 761 756 756 766 771 770 764 772 782 773 771 777 773 770 771 773 775 775 775 772 778 778 763 761 764 759 761 763 765 769 761 756 762 762 758 757
792 790 789 788 788 787 788 789 789 790 789 789 797 802 798 789 776 773 772 767 771 774 774 777 779 782 781 776 777 776 772 775 774 773 774 773 774 774 775 774 771 771 774 780 780 774 780 776 759 759 758 753 760 758 755 766 776 776 778 785 776 759 762 779 780 770 774 786 783 775 776 777 783 783 767 766 771 764 762 764 766 770 766 759 759 759 757 754
792 790 787 786 786 787 788 788 789 790 788 790 800 798 783 771 766 767 768 768 771 771 776 784 780 780 781 774 775 779 775 775 775 774 774 776 778 777 776 775 773 772 770 774 777 773 781 782 761 758 764 753 751 758 756 756 764 774 782 779 766 758 765 780 791 789 793 800 783 764 772 781 788 793 783 775 779 775 767 765 768 769 770 767 760 758 757 753
792 789 784 782 785 786 786 788 789 788 787 793 799 792 778 769 763 763 766 768 770 772 779 784 776 776 781 776 772 773 775 777 776 774 774 777 780 776 773 775 774 771 767 769 773 770 776 786 767 754 763 755 746 760 765 754 753 763 767 761 767 784 788 790 801 803 802 808 798 775 763 765 773 785 789 785 781 778 770 766 770 771 772 772 766 762 759 756
791 788 783 781 783 784 785 788 787 786 790 796 797 788 777 770 764 763 765 767 770 775 779 777 773 775 777 775 773 771 774 777 776 776 777 780 783 776 771 775 774 771 769 768 774 771 771 786 781 759 756 756 753 764 773 768 761 762 762 759 764 779 787 793 798 796 796 803 804 790 773 772 779 779 783 784 777 774 772 769 772 774 772 770 767 766 763 759
788 786 783 780 782 784 785 786 786 788 792 792 786 778 769 766 765 763 764 766 769 773 775 773 772 777 777 774 774 771 773 777 776 777 777 778 782 777 769 772 774 772 770 768 771 772 770 782 786 766 754 759 762 764 769 776 777 776 782 786 781 773 771 781 785 780 786 797 801 799 788 783 784 777 777 780 773 771 771 769 771 772 770 766 763 764 765 761
786 786 782 779 781 783 783 788 789 787 788 784 777 771 766 764 765 764 764 765 766 766 768 770 771 773 774 774 774 771 773 777 776 777 777 773 777 779 771 769 773 772 772 772 770 771 774 781 786 779 769 765 763 760 761 768 772 775 785 793 796 788 778 787 791 776 773 782 788 792 790 782 776 773 776 777 770 767 768 768 768 768 767 765 761 762 765 764
788 787 781 778 782 781 783 789 786 780 781 778 770 766 766 767 767 766 765 766 768 765 765 770 772 771 773 774 772 771 775 777 775 775 775 772 773 777 772 769 771 772 774 776 770 767 774 783 789 787 775 765 759 757 760 763 765 770 776 780 794 801 795 801 807 790 779 781 775 776 784 785 778 773 774 773 769 769 770 768 767 766 765 763 761 762 764 766
785 782 778 778 781 779 785 791 783 777 776 769 762 762 764 769 770 767 766 768 770 769 768 771 772 771 772 770 770 773 775 776 776 773 774 774 770 770 770 770 772 772 774 775 771 772 778 785 792 790 776 763 756 753 756 759 763 772 775 776 788 796 797 806 805 792 788 788 781 784 793 793 784 774 772 772 768 767 770 769 767 766 765 764 763 762 762 763
783 778 774 777 779 778 786 790 781 776 773 767 767 767 765 767 768 767 768 769 767 768 772 772 769 769 769 767 769 772 773 778 780 774 774 777 771 766 768 771 773 773 772 775 775 779 785 787 791 799 796 783 771 769 771 769 769 777 782 785 788 785 788 796 792 789 796 791 780 787 797 796 789 778 772 770 767 766 769 769 767 765 765 765 764 763 761 761
788 782 773 773 776 778 781 779 772 772 769 767 771 772 768 768 766 764 766 765 761 763 769 768 764 764 765 766 771 771 771 778 781 775 775 776 772 768 769 772 774 772 771 775 776 778 786 789 790 802 811 805 796 793 790 783 777 776 778 783 786 785 787 790 790 801 812 802 790 792 796 793 788 781 775 773 771 770 769 768 766 764 765 765 764 764 764 764
791 785 777 773 772 775 776 770 768 773 770 767 771 772 771 771 765 760 763 764 761 761 765 764 760 763 767 769 775 777 773 774 776 776 778 777 771 766 768 772 773 772 775 778 778 780 786 788 788 795 802 800 795 788 780 778 780 778 775 776 780 783 785 787 792 802 807 807 809 805 800 797 789 780 778 776 774 774 771 770 770 766 765 765 764 766 766 768
791 785 777 776 776 775 775 771 769 773 769 769 772 770 769 771 765 761 764 766 762 761 765 764 762 768 772 771 776 779 775 773 775 777 779 778 768 758 762 771 772 772 777 779 777 780 789 790 784 783 787 785 781 777 773 774 780 780 778 779 779 780 783 788 793 793 793 807 814 800 796 804 796 782 779 778 777 777 774 773 773 769 767 766 766 767 767 768
788 782 773 776 781 778 774 771 768 768 767 767 769 768 769 770 767 766 767 765 762 762 768 770 767 768 769 768 774 778 774 775 780 779 777 777 771 762 763 768 769 770 775 775 771 776 790 792 780 776 781 778 773 773 774 776 779 779 781 782 779 778 782 787 789 784 785 800 803 790 790 801 798 789 786 782 780 779 777 775 773 771 769 767 767 770 771 771
785 783 774 775 780 775 770 769 768 769 768 768 770 771 771 772 769 764 762 764 766 765 768 774 771 766 764 763 769 776 773 776 784 781 777 776 773 770 772 771 766 766 771 774 769 772 785 789 780 779 784 780 774 773 774 777 780 780 780 779 777 777 777 778 778 774 777 786 787 782 787 793 793 792 789 783 780 778 776 776 775 772 772 771 771 775 779 777
791 791 786 784 783 776 772 771 772 775 772 772 776 774 770 772 770 762 756 761 770 767 765 771 769 762 762 761 766 773 768 768 777 776 774 777 775 774 778 777 770 766 767 772 772 773 784 789 781 782 788 785 777 774 775 778 781 782 781 776 774 775 774 776 781 782 783 786 783 782 789 791 789 789 785 780 778 777 776 779 779 777 775 773 773 780 785 783
796 795 793 794 790 780 776 774 773 777 777 774 775 773 771 771 768 762 757 756 763 764 759 763 765 760 759 758 762 766 760 759 768 766 762 770 772 768 771 771 770 770 770 772 775 776 782 786 780 782 793 790 778 776 778 777 777 782 783 778 777 779 778 782 791 793 790 788 788 788 790 790 789 790 788 781 779 779 780 782 783 780 777 775 778 785 789 786
799 795 792 796 793 783 779 777 774 778 778 771 767 768 769 767 760 762 764 760 759 758 752 755 761 761 762 762 760 759 754 752 755 751 750 757 759 759 762 764 765 771 773 772 774 775 779 784 781 783 795 793 780 777 780 780 789 795 787 777 778 780 779 779 783 782 778 781 788 789 784 782 784 787 787 783 782 785 785 785 785 784 781 780 785 790 790 788
Wind_Speed
13 13 13 13 13 13 12 12 12 12 13 12 12 12 13 13 13 13 12 11 10 8 8 9 9 10 11 11 12 13 12 9 7 10 10 4 5 6 4 6 7 9 13 11 10 8 8 9 9 8 8 7 5 4 3 4 3 2 2 2 1 2 4 3 4 4 2 8 8 9 7 6 8 5 5 4 4 7 5 5 7 7 7 13 18 23 24 21
13 12 12 12 12 12 12 12 12 12 12 13 13 13 14 14 14 14 14 12 11 10 9 9 9 10 10 10 11 12 10 8 12 10 2 5 7 7 5 7 7 10 13 11 10 9 8 7 7 8 7 6 3 2 3 3 1 2 1 2 1 3 5 2 3 2 1 7 7 7 5 4 8 7 5 6 6 6 6 7 8 11 13 16 20 22 23 21
13 12 12 12 12 11 11 12 12 12 12 13 13 14 14 15 15 15 15 13 12 10 9 9 9 10 10 10 11 9 9 11 11 3 6 6 4 4 5 8 8 14 14 10 9 10 9 7 7 8 7 7 3 2 3 2 0 2 2 3 1 2 5 4 3 5 2 7 7 6 4 3 7 6 5 6 7 6 5 8 9 11 14 16 18 20 22 20
13 12 12 11 11 11 11 12 12 13 13 14 14 15 15 15 15 16 15 14 11 10 9 9 9 9 9 10 9 6 8 11 2 7 8 5 1 3 7 10 11 15 11 9 9 10 10 9 9 9 8 7 3 4 5 1 1 1 2 5 4 1 3 3 1 5 5 6 6 5 5 5 6 5 5 6 7 5 3 4 9 11 14 16 17 18 20 19
13 13 12 11 11 11 11 12 13 13 14 15 16 16 17 17 16 15 14 12 10 9 8 8 9 8 9 9 6 4 8 6 5 10 7 4 2 4 9 12 13 11 9 8 8 8 10 10 9 9 7 6 5 4 4 1 1 2 2 7 8 6 3 1 1 2 4 5 6 5 6 5 6 5 2 2 4 4 1 4 9 12 13 16 17 17 18 17
14 13 12 12 12 12 12 12 13 14 15 16 17 18 19 19 17 14 12 10 8 7 7 8 8 8 9 8 4 4 8 1 7 7 6 4 4 8 11 12 12 8 9 8 7 8 8 9 9 8 6 5 6 6 3 1 2 2 2 5 6 7 5 4 3 1 2 5 6 5 4 4 6 6 4 3 2 2 6 5 10 13 13 16 17 16 16 15
14 13 12 12 12 12 12 13 14 15 15 16 18 19 20 18 16 13 10 8 7 6 6 7 8 7 8 6 3 7 6 6 9 6 5 5 6 8 12 11 8 6 8 9 8 8 7 9 10 8 7 5 5 6 5 2 4 4 3 4 5 6 6 6 5 2 2 4 5 4 3 5 6 5 7 4 3 6 6 6 11 13 14 16 16 15 15 14
15 14 13 13 12 12 13 13 14 15 16 17 19 20 19 17 14 12 9 6 5 5 5 6 7 7 7 5 6 7 1 9 9 4 4 6 6 7 10 8 7 7 8 9 8 7 6 9 10 8 7 4 5 6 6 5 5 2 3 4 4 5 5 6 6 5 4 4 4 5 5 6 3 4 5 4 6 7 5 9 12 13 14 15 14 14 13 13
15 15 14 13 13 13 13 13 14 15 16 17 19 20 18 14 13 11 7 4 4 5 5 5 6 7 6 4 10 5 6 9 7 4 4 6 6 7 9 7 7 8 8 7 7 7 6 7 9 7 6 4 5 6 6 6 2 2 3 2 3 3 5 5 5 5 3 3 4 6 7 5 4 5 4 6 9 6 6 10 12 12 14 14 13 14 13 12
16 16 15 14 14 13 13 13 14 14 16 18 19 19 15 12 12 9 6 4 3 4 4 5 6 7 5 6 10 2 6 5 5 5 4 5 5 7 9 6 6 8 8 6 7 9 7 6 6 5 6 6 5 5 6 5 3 2 2 1 3 2 4 3 4 5 1 3 4 6 4 4 3 4 3 6 10 8 8 11 11 12 14 13 13 13 12 12
17 17 16 15 14 13 13 13 14 14 16 18 19 17 13 12 10 6 5 4 3 3 3 4 5 5 7 10 7 3 4 2 4 5 4 4 5 6 6 5 5 8 7 6 7 8 8 7 7 5 3 3 4 7 5 3 4 2 3 1 4 2 3 2 3 4 1 2 3 4 4 4 3 4 5 6 8 9 10 11 11 11 12 13 13 13 10 10
18 17 17 15 14 13 13 14 14 14 17 18 18 16 12 11 9 5 6 5 3 3 2 4 5 5 8 9 4 7 2 2 3 4 4 4 5 4 3 4 6 7 6 6 7 7 8 6 8 9 5 5 5 6 2 1 4 4 4 5 4 4 3 3 3 3 1 2 2 4 3 6 8 5 7 8 8 8 10 10 12 11 12 13 12 12 10 10
19 18 17 15 14 13 13 14 14 14 16 17 17 15 11 11 7 3 7 6 3 3 3 5 4 4 9 3 7 4 1 2 2 4 4 5 4 2 3 4 5 7 7 7 6 6 8 7 9 11 7 7 6 4 3 3 6 6 6 7 5 5 3 4 3 2 1 2 2 5 2 4 9 8 8 8 8 9 10 10 11 11 11 12 12 11 10 11
20 19 18 16 14 13 13 13 13 14 16 17 16 13 12 11 5 3 8 6 2 3 3 5 4 4 7 4 8 3 3 3 4 6 5 5 4 3 2 3 5 5 6 6 6 5 7 8 9 10 7 8 7 6 6 7 5 7 6 5 6 5 1 3 2 0 1 1 3 6 3 0 7 9 9 7 8 9 10 10 10 11 11 12 12 11 11 11
20 20 18 16 14 13 12 13 13 14 15 16 15 12 12 10 2 2 8 6 2 2 4 6 2 5 5 6 8 4 5 6 6 6 5 5 5 4 3 3 4 4 5 6 5 5 7 8 9 9 6 7 7 7 8 7 6 8 6 4 4 2 1 2 5 3 1 2 5 6 2 3 5 6 7 5 7 7 7 7 7 10 13 12 12 11 11 11
20 20 19 17 15 13 12 12 13 13 15 16 14 11 11 7 2 2 7 6 3 2 3 5 3 8 5 6 7 7 7 5 4 4 4 5 5 1 4 3 4 5 6 6 5 6 7 8 8 8 6 4 7 9 7 6 6 6 5 5 2 2 1 1 3 3 1 2 4 6 3 2 4 6 4 3 5 6 4 5 7 9 14 12 11 11 10 11
20 20 20 18 15 13 12 12 12 13 14 15 13 9 8 6 4 4 5 5 4 2 5 7 6 8 3 5 7 6 4 5 4 4 3 3 3 2 5 5 5 6 6 7 6 7 7 8 7 7 7 7 8 7 7 7 6 5 6 7 2 2 4 3 2 4 4 2 3 7 5 2 5 9 7 3 5 6 4 5 7 9 11 13 11 11 11 10
20 21 20 18 15 13 12 11 12 12 13 15 13 9 7 6 5 7 7 4 2 4 9 8 8 6 3 5 4 2 3 4 3 3 4 2 2 4 5 4 5 7 8 8 7 9 7 7 7 7 6 7 7 6 8 5 4 4 3 4 3 3 4 2 1 3 5 4 3 4 2 1 5 10 9 7 7 7 6 6 5 8 9 12 12 10 11 11
20 20 20 18 15 13 11 11 11 11 12 14 14 10 8 6 6 8 9 7 4 3 2 1 3 1 5 4 3 4 3 3 3 4 4 4 4 6 4 3 6 8 8 7 6 8 7 6 6 6 6 8 9 8 9 5 5 6 5 6 7 4 2 2 2 2 3 5 2 2 2 4 6 9 10 10 10 9 7 7 4 4 9 11 11 10 11 11
20 20 20 19 15 13 11 10 11 10 11 13 12 9 6 4 3 4 7 9 2 5 4 5 4 3 5 4 4 6 5 5 6 3 3 5 6 7 6 6 7 8 7 6 6 5 5 6 6 7 6 5 3 3 8 8 6 7 9 9 9 7 2 4 2 3 3 4 4 3 3 6 5 8 11 11 12 11 9 9 5 3 9 10 10 11 12 11
20 20 20 19 15 12 10 9 10 8 9 12 11 7 4 6 3 3 1 3 3 4 4 6 5 4 6 4 2 3 6 6 4 3 4 6 7 7 6 6 8 7 4 2 4 3 3 7 7 7 3 4 4 3 5 9 8 9 10 9 9 7 1 6 3 2 1 2 3 5 2 7 9 9 11 12 12 12 12 10 7 8 12 9 8 10 12 10
20 20 20 19 16 12 9 9 8 7 8 11 12 7 6 9 6 6 7 3 6 2 1 3 2 4 6 1 3 3 7 5 6 5 4 6 8 5 4 6 9 4 3 2 4 4 5 8 7 3 3 4 4 4 5 8 9 9 8 8 8 3 3 5 3 3 2 2 2 4 5 5 11 11 11 14 12 11 11 10 8 11 12 9 8 9 10 11
21 21 20 18 16 12 9 8 8 8 7 10 10 4 7 8 8 7 8 7 4 3 2 1 2 5 6 2 4 6 9 2 4 8 6 8 7 2 4 5 4 1 4 6 7 4 4 2 1 2 3 4 7 6 8 8 8 9 7 8 8 4 3 2 2 3 3 5 5 5 6 3 9 11 10 12 11 10 10 10 8 9 9 9 10 9 10 12
22 21 19 18 16 12 9 7 7 8 7 10 8 4 5 7 10 10 8 7 2 4 2 3 2 3 5 2 1 7 3 3 0 8 7 9 4 1 5 2 3 4 4 3 6 9 6 4 5 2 1 6 9 8 9 8 7 8 9 9 10 9 5 1 3 2 7 8 7 7 6 4 5 10 9 9 10 10 11 11 9 9 9 7 9 10 10 11
23 22 20 18 16 12 9 8 8 7 6 9 5 2 4 7 9 10 8 7 3 6 5 4 2 2 4 1 4 5 1 5 3 6 5 6 3 1 2 1 4 3 4 2 7 9 4 5 4 4 6 7 8 8 8 8 6 7 10 10 11 13 12 6 3 0 8 6 4 6 5 3 4 9 9 9 11 11 12 14 12 11 10 8 8 10 11 11
25 23 20 18 15 12 8 5 3 4 7 7 1 2 5 6 9 8 6 6 4 6 5 6 3 2 3 4 3 2 3 4 5 4 3 4 4 4 2 3 2 3 1 4 6 4 1 5 3 6 7 6 8 8 8 8 7 7 6 5 9 11 12 11 2 1 7 5 1 4 5 3 3 7 9 11 13 14 13 15 15 12 10 9 8 9 11 12
26 24 21 17 15 11 6 3 3 5 7 1 2 4 6 7 9 6 5 6 4 3 3 4 2 1 1 1 2 4 1 5 6 5 3 2 3 3 3 3 1 1 1 4 3 1 2 1 1 6 6 7 8 6 4 5 7 6 4 5 7 8 9 12 8 5 8 7 4 7 7 6 5 6 13 15 14 15 15 16 17 14 12 11 10 10 13 13
27 25 22 17 13 11 7 6 7 8 4 4 3 6 6 8 9 4 6 4 3 2 2 5 3 1 2 2 4 5 2 3 3 5 6 2 4 5 5 2 4 2 1 7 2 4 2 3 3 5 7 7 6 3 3 1 8 7 6 5 8 9 12 13 8 6 7 7 7 8 7 8 6 4 14 15 12 14 17 18 19 17 15 13 12 13 15 16
27 26 23 17 11 9 7 7 9 8 4 5 5 7 7 9 7 5 6 4 3 3 1 4 3 5 6 5 4 2 1 2 3 4 6 4 5 6 6 2 3 5 3 8 5 5 2 3 2 4 7 4 5 5 4 5 8 8 9 7 8 10 12 10 7 6 7 6 8 10 7 7 6 3 10 9 8 11 13 15 17 17 16 15 14 15 16 16
28 26 23 16 7 4 5 7 11 10 6 5 6 7 9 8 5 7 7 2 3 4 3 3 4 5 6 8 6 3 2 2 1 3 6 5 6 7 5 1 4 7 5 7 6 1 3 1 3 5 7 6 7 6 4 6 10 10 8 8 9 9 9 8 6 5 8 7 10 14 11 7 7 1 6 4 5 6 8 10 14 16 17 16 14 15 15 14
28 27 22 13 4 3 5 5 6 7 5 7 8 8 9 6 5 8 4 0 2 4 5 5 4 4 6 8 3 3 3 3 2 5 6 5 8 8 6 6 5 6 7 7 6 4 5 5 5 3 4 6 7 7 4 5 9 8 7 7 7 6 6 6 5 6 8 7 10 14 10 9 8 1 5 3 5 5 1 6 13 18 18 16 13 14 15 14
28 26 18 10 6 10 10 3 1 2 4 6 7 8 7 5 7 7 1 2 3 4 3 3 4 4 5 6 2 1 2 2 1 4 4 3 4 2 1 4 2 4 6 3 4 5 6 6 3 4 4 5 8 7 5 7 6 5 6 6 5 4 4 5 6 6 7 8 11 8 3 6 5 2 2 4 4 8 5 2 9 17 19 16 14 14 14 15
27 22 11 5 6 10 10 6 2 3 4 7 7 7 6 6 7 4 1 3 2 3 1 1 2 3 5 5 3 2 3 1 1 1 1 3 4 2 1 4 6 6 5 2 3 4 5 8 5 5 6 4 7 7 4 3 2 2 6 6 6 5 5 6 7 7 8 10 12 4 1 7 5 3 2 4 6 5 4 6 7 11 18 17 15 15 14 15
23 15 5 3 5 8 9 8 6 3 5 7 7 6 8 8 4 2 2 3 4 2 2 2 3 4 6 5 3 2 6 2 1 4 3 5 6 3 5 2 4 7 5 4 5 5 2 4 4 1 3 2 6 6 8 9 4 2 6 7 7 7 7 7 6 6 6 7 5 4 4 6 3 2 2 4 3 2 3 6 8 9 13 17 15 16 16 15
18 9 3 2 5 7 9 9 8 6 7 7 7 7 8 8 4 3 3 2 4 4 5 3 5 7 7 4 2 0 5 2 2 5 4 3 3 1 2 3 3 5 6 4 2 2 6 1 6 2 2 4 7 5 5 9 7 3 5 5 6 7 9 8 9 10 9 6 2 3 3 2 2 2 1 3 3 3 4 6 8 9 9 15 16 16 16 15
13 4 3 4 5 5 7 9 8 7 8 7 7 7 7 7 4 1 1 2 1 2 4 5 7 8 6 6 5 4 3 1 1 4 3 1 2 2 2 3 3 5 6 5 4 2 4 1 6 3 4 4 5 6 3 6 5 2 3 5 6 8 9 8 10 11 10 9 4 3 4 2 4 3 2 4 5 4 5 5 6 7 8 10 15 14 14 15
13 6 6 6 6 5 7 8 8 8 8 7 8 8 7 6 3 1 2 1 1 2 5 5 5 5 4 4 6 7 6 4 4 4 2 2 1 2 1 2 2 6 7 6 5 3 4 6 3 3 5 3 3 5 7 6 5 5 2 3 5 8 7 6 8 7 7 9 6 6 8 6 5 3 3 4 6 6 6 6 5 7 8 7 9 11 14 14
14 10 8 5 6 5 7 9 9 9 7 7 9 9 8 5 1 1 1 2 3 4 7 6 2 2 5 4 4 7 6 4 4 3 3 1 3 2 1 2 3 2 7 8 6 3 3 8 3 4 4 2 4 5 9 7 6 7 6 3 4 5 5 3 5 7 7 7 6 9 11 7 4 2 1 3 4 6 7 7 6 6 5 5 6 8 12 13
12 10 5 7 8 6 8 10 9 8 7 8 9 8 9 7 2 2 2 4 5 5 6 7 3 2 4 5 2 4 6 4 0 2 3 1 2 2 1 1 2 2 3 7 7 3 3 7 1 5 2 4 2 5 5 1 3 6 9 6 4 4 3 2 4 6 8 7 6 9 10 3 3 3 1 2 5 6 8 7 5 5 5 3 3 6 8 11
10 8 3 9 9 9 10 10 8 7 7 9 9 6 7 8 5 4 5 6 6 5 5 5 3 4 4 3 4 2 4 4 4 3 1 2 2 3 3 1 2 1 1 6 7 3 3 5 3 3 3 5 4 2 3 5 3 5 6 6 6 5 5 4 5 6 7 7 6 7 7 1 5 2 2 5 5 5 7 7 3 3 6 5 2 1 6 10
9 6 3 10 11 13 11 8 7 7 7 8 10 9 5 3 5 7 7 7 7 5 5 6 4 4 3 3 4 3 3 4 4 3 2 3 3 3 3 3 2 2 2 8 7 1 2 4 5 6 6 6 4 6 5 8 7 5 3 3 6 7 7 6 6 7 7 7 6 7 8 0 4 1 2 4 5 5 7 7 3 3 5 6 5 4 3 7
8 5 5 10 12 14 10 7 7 7 8 8 8 7 2 1 5 7 8 8 8 7 5 5 7 6 4 5 4 2 3 5 4 3 2 2 1 1 5 4 2 4 5 9 4 5 4 5 7 7 8 9 7 5 4 6 5 7 5 1 1 5 7 7 6 4 5 7 7 9 8 0 2 3 2 3 5 6 7 7 4 4 6 7 7 5 2 4
7 2 7 11 12 13 9 8 8 7 8 8 7 5 3 3 8 8 7 9 9 7 7 6 6 7 5 5 4 3 4 4 3 3 2 1 0 5 7 3 2 4 6 6 2 5 3 4 6 7 7 9 7 4 4 4 5 6 4 3 2 3 1 3 7 7 6 7 6 7 7 1 1 6 1 2 4 4 5 7 5 5 7 7 7 5 2 4
6 5 5 10 12 13 8 7 8 7 8 9 8 7 6 6 9 9 8 9 9 7 8 7 7 7 5 4 4 4 3 2 3 3 3 3 2 8 6 2 2 7 5 3 5 5 3 4 4 6 7 7 6 5 3 4 4 3 2 3 5 5 3 5 8 7 5 9 9 8 5 2 1 5 0 3 5 5 5 6 6 8 8 6 6 5 5 2
6 7 4 8 12 11 9 8 8 7 7 10 10 10 10 8 9 11 10 9 9 8 8 7 8 7 5 5 5 5 3 2 3 3 2 3 3 6 3 3 3 7 4 7 6 7 6 5 5 6 7 7 5 3 4 2 3 4 3 3 5 7 9 8 6 4 5 9 11 9 5 2 2 2 2 3 6 6 6 6 6 8 10 7 7 6 5 2
5 6 5 7 10 9 8 9 10 9 8 7 7 9 12 10 10 12 11 9 8 9 9 8 7 7 7 7 7 7 7 6 4 2 2 5 4 6 7 4 6 4 7 7 4 7 6 6 7 8 7 9 9 8 8 7 8 8 7 5 6 6 7 8 6 5 3 5 8 8 8 6 3 2 2 2 5 6 7 8 7 8 10 9 7 7 6 2
5 5 4 3 5 7 8 9 10 9 9 8 5 6 11 12 10 11 11 10 9 9 10 9 8 8 9 9 8 7 8 7 6 5 3 6 8 3 9 5 9 3 7 2 8 6 6 7 9 10 9 10 12 10 10 9 9 11 10 10 8 4 3 7 8 7 3 2 6 6 9 9 8 4 3 3 5 7 7 8 8 9 10 10 9 9 8 4
5 5 3 3 3 6 7 7 9 11 12 11 7 6 9 12 11 9 10 10 10 9 8 9 11 12 11 9 8 8 8 7 5 6 4 4 8 4 4 8 9 9 6 9 9 4 6 8 9 9 8 10 11 9 8 9 8 9 10 10 11 8 5 7 9 9 7 6 7 6 6 7 9 8 6 6 6 6 7 7 8 10 10 10 12 13 11 6
4 5 3 3 5 7 6 5 5 8 11 8 7 8 9 10 12 11 9 9 10 10 10 10 12 14 14 11 8 7 8 6 6 6 5 6 7 6 4 6 7 11 7 8 6 3 5 6 6 7 8 10 11 8 7 9 9 9 10 10 11 10 9 9 11 10 8 8 9 9 8 6 5 6 6 6 6 4 5 6 9 11 12 11 13 13 11 7
5 5 5 4 7 8 8 7 5 7 8 6 6 9 10 11 13 12 9 9 8 10 12 13 13 12 14 14 11 10 9 7 6 6 5 6 7 4 4 6 4 7 6 3 2 3 2 3 3 5 8 9 9 8 7 9 9 9 11 11 11 11 10 8 10 8 5 6 8 10 10 5 3 5 6 4 5 4 5 7 10 11 11 11 13 11 9 8
6 6 5 5 6 6 6 7 7 7 7 7 8 9 10 13 14 13 10 9 10 11 11 12 14 12 12 14 14 12 10 6 8 10 6 6 6 4 3 3 4 5 4 2 2 4 4 4 3 5 7 6 6 8 7 8 10 10 11 11 9 10 8 6 6 6 5 6 8 9 8 3 1 3 5 3 4 6 7 8 9 11 12 12 12 11 8 10
8 6 3 5 6 5 5 7 7 8 7 7 9 9 10 12 12 12 10 6 9 15 11 6 8 8 8 11 12 11 11 10 12 11 5 4 6 6 4 3 4 7 7 5 4 4 5 6 5 5 6 5 6 7 7 8 9 7 6 5 5 6 7 7 8 8 6 5 6 7 4 2 2 1 3 2 5 7 8 8 7 9 13 13 12 10 9 11
Wind_Direction
10 9 10 12 11 9 5 4 4 359 356 350 348 346 342 341 337 336 335 330 328 323 319 318 317 320 325 323 322 324 320 310 285 239 222 277 297 279 257 208 210 192 177 193 212 215 225 230 235 239 244 246 237 259 292 288 302 43 30 45 349 356 62 41 51 36 114 132 135 141 142 137 135 130 133 150 132 116 119 117 109 113 107 105 119 132 138 144
8 9 9 9 9 7 3 2 360 355 350 344 342 340 337 334 331 332 331 329 327 322 322 318 315 320 325 326 325 325 325 296 263 236 207 321 272 255 232 191 194 178 177 203 215 219 235 233 234 236 244 252 226 257 306 285 305 101 112 66 359 10 56 33 79 23 294 127 134 141 143 146 141 143 159 155 126 133 142 128 121 115 109 113 127 136 141 147
7 7 5 6 5 3 1 358 354 351 346 341 340 336 332 330 329 328 326 328 325 321 320 316 319 322 325 328 327 334 326 284 254 195 38 344 248 226 202 184 170 166 182 222 230 231 255 269 258 243 247 259 232 251 273 253 295 163 162 89 278 330 54 9 100 155 164 124 147 147 141 151 136 147 177 155 139 152 138 127 133 128 128 131 137 141 145 152
5 4 3 1 359 359 356 352 350 347 342 340 338 334 331 328 327 325 323 324 321 321 318 319 323 322 330 331 337 356 305 272 230 75 33 8 165 193 179 171 161 169 201 254 252 245 262 272 262 250 253 266 252 252 268 298 16 261 355 74 142 201 60 354 5 153 140 129 148 140 153 155 130 155 184 163 155 136 96 141 145 140 141 141 144 147 151 154
4 3 360 357 356 353 350 348 345 342 341 340 337 334 331 329 329 324 321 320 319 319 315 321 323 325 334 333 353 352 285 262 87 65 38 35 108 158 161 166 164 179 234 257 247 247 253 256 251 246 250 269 269 250 260 289 330 277 22 73 119 136 119 134 62 113 133 133 130 142 169 152 134 159 154 122 129 108 227 206 146 140 146 146 151 152 153 156
5 2 358 355 352 348 347 344 341 339 339 338 335 333 331 331 330 326 322 319 315 314 318 323 322 330 334 342 16 283 270 22 71 56 50 63 115 144 152 162 165 193 248 244 237 239 238 242 240 241 239 253 266 262 288 7 306 293 84 69 92 114 112 109 95 93 171 153 140 156 163 153 164 153 118 101 106 182 229 206 139 139 149 150 152 155 156 157
5 2 357 353 349 346 343 340 339 338 338 336 334 333 333 333 332 331 325 316 316 317 321 322 323 333 336 346 340 254 252 68 72 58 59 90 116 142 151 157 172 214 245 234 235 235 229 233 232 243 243 246 266 259 303 326 243 277 62 65 50 81 95 103 102 86 124 140 151 159 159 190 189 149 137 146 212 224 206 161 137 139 149 152 154 158 157 155
6 1 356 352 348 343 340 338 337 336 336 335 333 334 336 336 335 335 325 316 317 320 327 327 324 328 341 341 276 240 159 69 80 74 69 103 122 150 160 171 208 234 239 231 238 240 233 236 234 249 248 244 276 266 302 296 233 283 30 69 65 78 88 95 96 86 102 118 144 159 186 206 175 126 151 184 231 224 169 142 141 143 150 155 157 157 155 158
7 3 356 351 346 341 338 336 335 335 336 334 334 337 338 338 338 338 330 321 317 328 336 324 319 321 341 317 267 247 82 71 90 98 98 126 146 170 186 197 214 230 237 235 246 248 239 236 233 254 278 272 272 274 288 283 247 36 6 74 87 99 91 90 98 97 114 132 163 184 188 188 134 118 166 215 217 198 160 151 145 150 153 157 159 154 157 163
7 4 356 351 345 340 337 334 335 335 334 335 336 338 340 343 343 346 344 335 328 336 335 322 321 318 311 268 266 274 88 92 114 126 140 159 167 184 209 217 213 230 238 234 238 244 247 261 260 268 289 277 257 265 274 292 1 14 292 124 102 100 93 97 100 98 148 149 187 212 162 142 153 154 197 221 206 181 170 157 149 160 157 159 158 152 161 163
6 3 357 352 345 340 335 332 334 333 336 337 337 338 341 345 347 360 360 350 349 335 338 319 310 316 287 267 288 46 111 141 127 148 163 175 188 197 224 234 226 233 238 234 233 244 252 275 292 264 258 296 263 253 260 318 335 306 279 206 139 144 117 112 94 92 178 150 195 233 109 118 188 192 187 199 207 185 171 159 159 169 158 160 158 152 163 161
5 3 359 353 345 339 333 332 332 334 338 336 337 338 336 343 348 9 3 357 352 335 348 318 315 329 286 269 7 57 132 176 144 167 169 182 202 217 252 242 234 244 251 244 230 239 255 274 276 251 270 322 272 267 291 355 286 262 257 246 184 181 157 95 76 68 28 114 165 226 153 172 193 196 176 185 221 192 169 171 169 171 161 161 159 154 163 159
4 2 359 354 346 338 332 332 330 334 338 335 337 335 332 340 342 7 1 355 348 346 335 321 333 299 279 299 62 63 160 138 155 175 180 192 196 204 252 244 239 250 259 266 254 236 247 262 262 261 290 286 267 330 324 248 260 249 238 242 223 211 174 74 68 101 146 104 153 220 226 189 184 189 178 181 222 192 174 188 175 169 168 161 159 160 162 158
3 1 359 354 347 337 332 330 328 335 336 334 336 331 331 333 331 12 358 354 349 357 330 324 355 274 270 71 82 95 117 119 156 172 183 190 191 184 201 234 233 236 242 266 277 247 239 244 253 272 280 257 282 338 271 242 245 245 243 244 248 242 152 37 336 259 194 134 194 227 268 167 171 178 169 171 226 196 179 205 186 170 172 164 162 165 161 159
3 1 357 354 349 337 331 328 327 334 334 334 335 329 330 328 309 6 356 3 323 341 335 317 325 247 254 102 103 129 163 166 158 162 173 189 208 189 162 202 210 210 224 242 259 237 234 236 240 262 251 229 269 284 253 241 236 241 251 246 239 245 51 325 278 275 299 164 186 234 281 118 158 175 165 170 219 191 175 230 224 182 174 167 165 166 162 161
3 0 357 353 349 336 330 326 324 333 331 332 333 326 329 324 239 282 354 3 299 325 320 290 220 231 278 77 128 183 188 161 127 138 156 216 246 178 137 179 185 189 212 221 231 217 219 230 238 266 275 242 244 249 249 245 235 237 259 263 210 174 202 221 280 292 282 149 175 240 273 94 151 185 179 168 186 162 168 256 267 212 178 166 171 166 164 163
1 360 358 353 347 337 329 324 323 331 329 330 332 324 327 315 239 254 322 333 321 317 267 283 282 253 275 99 157 178 146 117 127 142 133 227 266 130 160 183 175 181 195 196 209 209 208 222 234 253 255 247 242 242 249 247 244 229 240 264 258 241 232 182 321 297 230 204 195 226 252 49 134 169 172 156 152 150 184 240 273 246 189 166 177 170 164 167
359 358 357 352 347 337 327 322 322 328 327 328 329 317 312 306 269 268 290 313 320 263 253 263 279 269 126 128 162 107 98 115 138 162 143 166 200 181 190 194 169 176 183 180 199 208 200 208 228 238 225 228 240 243 242 246 296 285 247 270 277 280 258 185 16 276 232 241 206 203 240 88 146 160 165 159 156 162 186 222 256 262 223 177 175 173 165 170
354 355 356 352 347 335 326 321 318 325 326 324 328 320 302 288 274 264 254 235 219 263 274 238 270 319 87 104 105 88 95 119 160 188 167 152 186 200 206 204 183 191 191 169 189 207 203 212 224 238 233 222 218 229 249 280 346 316 289 277 273 275 267 87 50 11 324 299 264 177 182 193 176 160 164 165 171 178 189 218 218 265 247 197 175 175 168 174
349 352 353 351 347 335 326 316 314 324 321 320 326 308 284 278 249 222 218 222 257 3 28 39 360 30 85 88 104 121 129 163 195 191 159 171 201 203 188 192 193 209 218 176 167 193 221 233 223 231 248 245 223 243 279 304 325 285 269 272 276 272 182 110 79 47 11 314 304 289 180 179 186 161 164 170 175 184 193 208 200 236 241 209 184 175 167 176
347 348 349 350 346 335 322 311 311 314 312 316 311 285 331 6 337 2 331 204 97 19 26 48 12 41 60 30 60 164 176 168 174 138 144 187 216 211 169 189 215 207 213 173 137 145 239 250 238 239 288 5 7 349 296 290 288 264 261 268 273 277 168 111 97 86 104 265 271 275 228 173 183 167 163 170 177 185 192 199 197 213 218 203 198 182 165 177
346 346 346 347 344 336 320 307 303 299 302 302 287 277 19 18 345 345 320 254 115 98 35 94 190 108 85 37 73 230 229 141 125 130 147 207 214 215 167 197 233 200 124 212 208 183 212 236 243 245 17 349 296 297 276 272 275 267 267 267 266 274 108 119 150 166 201 283 250 257 284 192 169 162 168 176 183 184 187 196 199 210 205 189 202 191 171 181
347 344 344 343 342 336 314 299 296 291 287 287 286 317 18 0 337 333 294 270 120 150 201 127 228 115 116 152 118 234 247 145 132 123 136 230 213 225 246 206 244 245 148 216 236 235 229 223 275 53 59 280 264 252 253 262 263 258 259 265 265 237 170 174 182 180 238 273 283 275 280 240 152 154 173 182 186 178 179 196 207 219 211 193 201 198 185 184
349 343 341 341 340 334 312 296 286 275 264 275 291 359 3 340 336 333 302 273 167 135 118 63 343 66 80 62 206 255 266 75 145 113 136 243 213 169 269 252 252 221 158 224 261 265 280 41 48 1 281 261 263 248 242 251 252 250 248 258 276 267 250 207 127 212 262 244 255 269 263 258 173 165 172 181 188 180 177 188 201 211 210 209 210 202 201 191
350 343 340 339 337 333 315 286 260 251 254 267 270 28 332 332 338 330 308 267 183 130 144 165 204 79 77 183 237 273 142 111 69 101 146 272 304 262 258 202 265 259 109 195 253 258 280 51 42 276 254 245 257 257 247 253 262 259 248 245 265 274 276 283 111 159 278 246 229 272 276 268 192 168 169 176 186 188 183 185 191 194 194 211 216 202 206 199
349 344 339 337 334 329 306 271 246 251 264 266 239 15 319 327 330 322 296 255 186 137 163 178 177 134 146 200 208 283 216 146 77 98 180 295 311 294 254 185 253 353 71 223 250 262 96 62 357 272 256 242 248 258 249 251 264 262 265 258 254 267 279 282 280 202 276 275 217 265 281 280 204 179 185 185 186 189 188 188 190 185 182 198 206 202 209 202
347 343 337 333 332 325 299 307 333 267 261 282 62 325 316 323 319 310 275 248 178 137 165 143 109 150 158 178 232 282 240 123 118 145 172 268 247 247 254 240 252 103 193 254 260 194 172 119 215 249 258 244 243 252 228 236 259 268 350 353 284 279 276 266 257 237 266 289 272 249 257 269 267 197 186 188 189 189 191 195 195 187 181 189 196 203 212 204
345 341 335 331 329 315 290 300 298 264 275 29 347 306 319 313 301 264 259 270 120 139 179 112 85 196 211 203 245 283 36 121 201 143 123 237 249 254 260 283 327 351 276 284 285 118 213 244 196 233 248 241 253 323 43 281 264 283 330 319 284 280 270 264 262 253 265 282 279 258 237 252 277 160 166 182 191 194 195 194 195 193 188 188 190 200 213 205
343 338 332 328 320 302 280 276 273 272 329 349 299 302 306 294 286 239 256 281 142 175 142 107 141 186 213 214 209 253 133 187 288 98 134 213 225 263 291 28 321 301 270 274 296 73 64 306 329 276 261 278 333 347 349 292 269 296 323 297 268 271 271 270 260 258 265 260 270 268 244 252 274 163 156 180 200 204 203 196 192 194 193 192 189 197 211 204
341 335 330 323 317 310 283 248 244 259 302 303 289 298 286 273 260 243 249 254 152 147 134 170 178 166 205 217 190 183 200 181 70 158 191 208 187 223 266 237 259 271 236 237 263 14 83 242 265 268 284 324 337 309 290 286 281 294 304 277 255 248 249 257 243 245 262 251 254 258 247 249 270 174 129 173 241 222 204 204 196 189 191 195 193 196 206 206
338 332 325 313 282 221 245 231 218 239 265 279 286 284 270 250 240 255 264 278 164 151 167 188 174 170 225 246 214 149 189 164 165 231 224 197 195 205 214 215 234 253 234 215 213 195 169 194 205 204 273 298 286 265 225 239 272 278 269 261 263 247 227 243 241 235 251 250 250 251 246 247 255 55 122 172 295 305 209 206 201 189 188 192 196 198 201 207
337 329 319 297 253 221 234 279 47 217 243 270 279 267 257 230 232 250 209 165 199 166 172 170 163 195 237 259 263 117 231 162 147 272 294 273 225 195 291 301 305 258 252 211 177 192 190 195 175 160 206 258 274 266 205 202 230 253 265 260 255 250 233 251 250 241 246 249 252 256 280 264 245 87 132 141 19 345 354 314 220 194 184 187 199 202 200 205
336 328 315 282 246 216 229 265 246 210 246 260 261 254 251 242 241 258 163 170 132 88 109 156 181 223 242 231 172 148 256 286 26 259 273 291 268 154 112 322 313 289 301 329 256 245 177 170 181 183 166 190 263 279 275 254 213 240 273 267 253 244 231 246 245 237 243 245 248 231 169 253 226 109 45 76 58 358 352 352 300 218 186 181 199 204 202 204
336 325 309 272 243 212 217 230 214 232 265 251 245 238 241 248 253 307 265 178 106 103 172 194 218 214 240 254 111 150 241 186 22 286 215 225 247 178 136 120 308 296 304 296 282 305 290 182 184 212 85 171 259 300 328 319 308 252 262 260 267 270 254 259 259 247 255 251 232 164 185 262 253 162 49 56 59 1 21 29 353 282 205 177 192 207 204 201
337 320 295 266 240 217 217 221 218 243 255 241 239 235 234 246 243 238 247 140 123 191 179 177 232 218 218 240 92 278 270 139 133 259 255 253 287 29 80 85 43 322 311 305 330 312 279 225 121 107 334 277 276 326 340 301 291 320 314 268 253 271 270 278 288 294 304 294 225 157 223 354 45 242 19 37 339 350 19 44 31 317 246 184 185 204 206 199
337 298 245 223 216 208 210 216 216 229 242 239 237 234 233 248 262 281 52 73 83 226 194 182 223 235 213 187 157 165 232 278 272 238 213 279 346 49 29 37 28 329 324 326 330 307 279 350 106 157 247 229 283 324 317 287 298 336 315 268 257 275 284 287 287 296 304 287 243 197 232 117 105 260 323 11 330 345 6 23 47 354 296 219 192 194 208 202
330 277 242 208 186 184 197 206 208 216 234 241 237 242 250 247 253 354 46 43 350 290 262 227 197 239 260 204 168 161 183 215 240 238 189 165 173 128 125 91 20 330 337 321 307 2 327 294 187 202 262 187 159 291 272 257 277 280 278 293 284 271 267 281 281 277 277 270 259 242 235 197 180 241 349 351 333 348 1 12 40 24 345 276 222 197 207 207
315 276 255 198 168 182 195 193 201 216 229 238 239 250 269 270 204 196 202 230 257 240 253 261 194 191 272 265 160 151 190 208 179 230 286 158 152 153 228 143 121 342 327 309 307 40 334 286 213 149 291 288 145 247 260 224 222 271 295 305 292 266 246 269 280 272 266 262 266 261 247 228 195 136 45 323 342 358 357 13 21 16 5 308 277 234 211 207
290 264 241 160 156 177 184 184 199 221 227 232 236 235 249 255 210 179 211 227 250 243 243 259 255 197 239 277 11 144 207 257 276 254 271 182 130 147 238 289 137 119 335 308 314 354 307 293 266 147 205 312 260 238 265 220 190 289 303 291 288 285 258 253 260 268 276 270 269 266 254 242 69 88 106 337 9 5 351 7 19 353 332 306 289 263 229 212
275 262 182 138 151 164 170 184 207 227 226 231 244 239 234 235 203 187 216 227 230 239 262 261 221 210 225 261 311 262 210 253 294 291 241 137 163 190 168 181 243 137 35 274 277 287 272 283 280 202 223 280 276 238 314 334 314 304 316 307 300 277 240 235 244 249 265 270 270 271 261 171 84 69 351 353 360 7 357 359 26 7 330 324 4 295 247 226
274 269 154 138 151 157 167 198 216 227 230 231 246 250 243 239 208 191 195 222 234 237 276 290 263 247 250 249 257 233 202 236 249 267 255 168 190 215 129 105 272 298 291 261 255 241 299 304 307 297 280 287 1 41 336 307 301 298 299 304 307 298 275 261 255 248 252 262 268 268 265 70 75 38 341 333 332 11 11 356 16 45 355 339 19 42 251 234
261 263 138 144 159 164 183 225 219 225 235 231 247 250 203 113 234 213 183 205 233 232 233 262 273 275 277 267 254 201 225 245 223 219 224 175 152 81 90 89 298 300 291 278 297 36 9 314 292 286 286 298 337 18 307 286 295 288 272 229 317 297 295 290 284 294 292 288 293 279 268 324 39 298 301 333 342 11 7 353 9 42 27 1 15 40 190 186
250 254 131 151 176 183 206 240 223 225 236 241 260 248 164 172 229 227 198 202 217 222 218 219 240 248 243 249 252 212 224 231 234 279 311 274 144 93 95 85 280 262 267 277 346 48 5 281 274 283 291 287 268 219 228 244 252 268 284 356 326 260 243 285 292 306 296 282 290 280 271 123 263 273 291 16 344 10 9 356 8 42 44 12 4 8 315 140
289 296 149 159 183 196 220 242 228 225 226 230 241 231 211 219 232 227 211 210 208 211 223 224 227 236 230 232 245 236 219 190 213 247 291 277 115 100 110 136 250 264 281 355 15 11 319 281 291 290 286 275 240 208 212 221 241 295 354 11 315 289 263 265 289 310 292 282 286 275 272 93 202 266 25 39 347 12 25 359 8 41 47 18 359 355 336 52
293 273 219 166 181 204 229 244 252 263 240 223 222 227 227 220 227 237 237 231 221 219 231 228 223 230 222 212 233 239 240 265 233 202 242 259 134 117 151 169 233 276 355 44 353 320 302 294 304 293 289 296 294 318 332 295 278 280 229 195 232 264 277 278 293 310 292 302 304 289 295 79 167 254 44 27 347 5 18 358 6 44 48 26 360 356 351 356
285 255 230 178 182 210 232 245 262 277 271 246 222 225 233 224 213 224 237 246 232 226 244 246 227 228 225 215 225 230 222 225 235 238 278 264 221 159 149 174 243 264 57 52 306 290 288 278 276 271 275 291 298 313 323 311 292 287 286 269 234 234 269 276 274 270 278 319 310 311 340 340 253 222 84 22 345 0 9 359 0 30 45 40 16 359 358 349
270 270 264 209 194 208 220 234 241 247 258 266 256 227 229 233 221 198 202 231 237 224 237 246 235 232 229 220 224 233 221 209 224 252 256 261 267 198 136 192 251 183 101 237 247 253 277 268 261 256 248 262 280 297 306 301 292 294 302 297 274 242 246 270 275 274 271 285 282 318 358 334 296 305 51 43 5 5 6 3 8 20 33 46 40 14 356 336
260 280 314 342 275 228 220 230 233 236 240 243 257 258 234 233 233 200 184 216 232 224 227 232 227 234 238 227 223 232 223 207 221 252 246 244 273 276 165 203 211 150 151 247 236 220 274 272 270 275 268 269 277 286 295 294 291 291 290 284 278 269 252 261 268 263 255 263 275 308 350 322 302 322 3 18 6 2 6 11 24 29 30 45 49 32 11 348
293 292 317 330 281 267 282 306 283 257 249 240 246 254 247 240 236 222 207 219 220 211 222 233 223 224 233 231 230 243 237 220 225 236 233 241 263 285 278 241 190 157 184 257 242 200 266 276 280 290 288 285 284 283 284 284 281 281 277 273 275 274 263 264 271 264 253 257 269 287 303 303 308 322 343 3 356 352 14 22 32 37 38 52 57 40 17 2
329 325 332 321 288 276 278 287 281 257 251 252 246 243 244 248 246 239 228 226 223 208 210 232 237 228 231 229 222 234 238 230 251 250 217 230 253 258 265 278 248 189 193 267 269 184 213 284 307 292 279 275 277 277 277 276 277 281 280 278 278 277 279 299 310 302 278 268 272 279 285 290 340 337 331 351 353 352 25 37 39 44 49 61 63 48 18 19
323 310 320 309 292 280 265 257 253 250 246 237 234 237 241 240 242 248 235 216 234 237 214 220 238 237 236 233 221 227 237 225 245 256 233 220 249 251 223 267 290 262 251 291 259 200 218 261 260 257 265 271 274 276 279 281 284 282 277 279 281 282 292 312 301 275 267 280 275 267 271 279 47 331 313 339 11 11 27 40 43 48 54 60 63 56 38 37
325 284 275 282 279 280 270 252 239 242 250 250 241 235 241 243 239 247 247 209 231 255 253 243 253 249 241 240 225 219 235 234 228 235 234 230 252 266 272 276 284 283 283 274 238 213 246 276 276 266 273 279 276 279 286 283 280 275 280 304 310 288 281 272 261 260 270 286 278 275 293 26 98 229 279 336 28 24 25 34 39 51 62 67 67 63 56 52